Weather History for KPOV - December, 2013

Change the Weather History Date:

Wednesday, December 4, 2013

  Actual Average (KCAK) Record (KCAK)
Temperature  
Mean Temperature 46 °F 34 °F  
Max Temperature 56 °F 41 °F 68 °F (1941)
Min Temperature 37 °F 28 °F 4 °F (1940)
Degree Days  
Heating Degree Days 18 31  
Month to date heating degree days 121  
Since 1 July heating degree days 1380  
Cooling Degree Days 0 0  
Month to date cooling degree days 0  
Year to date cooling degree days 652  
Moisture  
Dew Point 42 °F    
Average Humidity 81    
Maximum Humidity 100    
Minimum Humidity 68    
Precipitation  
Precipitation 0.00 in 0.10 in 1.15 in (1993)
Month to date precipitation 0.39  
Year to date precipitation 37.17  
Snow  
Snow 0.00 in 0.30 in - ()
Month to date snowfall 1.0  
Since 1 July snowfall 4.4  
Snow Depth -    
Sea Level Pressure  
Sea Level Pressure 29.87 in    
Wind  
Wind Speed 3 mph (SE)    
Max Wind Speed 9 mph    
Max Gust Speed -    
Visibility 9 miles    
Events      
T = Trace of Precipitation, MM = Missing Value Source: NWS Daily Summary

Daily Weather History Graph

Daily Weather History Graph

Search for Another Location

Airport or City:

Trip Planner

Search our weather history database for the weather conditions in past years. The results will help you decide how hot, cold, wet, or windy it might be!

Date:

Astronomy

Dec. 04, 2013 Rise Set
Actual Time 7:34 AM EST 4:56 PM EST
Civil Twilight 7:03 AM EST 5:27 PM EST
Nautical Twilight 6:29 AM EST 6:01 PM EST
Astronomical Twilight 5:55 AM EST 6:34 PM EST
Moon 9:00 AM EST (12/4) 7:05 PM EST (12/4)
Length of Visible Light 10h 23m
Length of Day
9h 21m
Waxing Crescent, 4% of the Moon is Illuminated
Dec 4
Waxing Crescent
Dec 9
First Quarter
Dec 17
Full
Dec 25
Last Quarter
Jan 1
New

Hourly Weather History & Observations

Time (EST) Temp. Windchill Dew Point Humidity Pressure Visibility Wind Dir Wind Speed Gust Speed Precip Events Conditions
12:15 AM 41.9 °F 40.0 °F 36.5 °F 81% 29.87 in 10.0 mi ESE 3.5 mph - N/A   Clear
12:34 AM 39.4 °F - 35.1 °F 84% 29.88 in 10.0 mi Calm Calm - N/A   Scattered Clouds
12:54 AM 37.9 °F - 36.3 °F 94% 29.89 in 7.0 mi Calm Calm - N/A   Mostly Cloudy
1:15 AM 39.9 °F - 38.3 °F 94% 29.89 in 10.0 mi Calm Calm - N/A   Mostly Cloudy
1:35 AM 39.4 °F - 38.3 °F 96% 29.90 in 7.0 mi Calm Calm - N/A   Scattered Clouds
1:54 AM 38.8 °F - 37.9 °F 97% 29.90 in 7.0 mi Calm Calm - N/A   Overcast
2:15 AM 38.1 °F - 38.1 °F 100% 29.90 in 7.0 mi Calm Calm - N/A   Mostly Cloudy
2:34 AM - - - N/A% 29.90 in 7.0 mi Calm Calm - N/A   Scattered Clouds
2:55 AM 39.2 °F 35.9 °F 39.2 °F 100% 29.89 in 7.0 mi ESE 4.6 mph - N/A   Scattered Clouds
3:15 AM 38.7 °F 36.3 °F 37.8 °F 97% 29.89 in 10.0 mi East 3.5 mph - N/A   Clear
3:34 AM 38.7 °F 36.3 °F 38.7 °F 100% 29.88 in 7.0 mi ESE 3.5 mph - N/A   Mostly Cloudy
3:55 AM 38.5 °F 36.1 °F 38.1 °F 99% 29.87 in 7.0 mi ESE 3.5 mph - N/A   Overcast
4:15 AM 39.2 °F 37.0 °F 38.7 °F 98% 29.87 in 7.0 mi East 3.5 mph - N/A   Mostly Cloudy
4:34 AM 38.3 °F 35.9 °F 37.9 °F 99% 29.86 in 7.0 mi ESE 3.5 mph - N/A   Scattered Clouds
4:54 AM 39.4 °F 37.2 °F 38.5 °F 97% 29.87 in 10.0 mi ESE 3.5 mph - N/A   Mostly Cloudy
5:15 AM 39.4 °F - 38.7 °F 97% 29.89 in 7.0 mi Calm Calm - N/A   Overcast
5:35 AM 39.0 °F - 39.2 °F 100% 29.90 in 7.0 mi Calm Calm - N/A   Overcast
5:55 AM 39.6 °F - 39.7 °F 100% 29.91 in 5.0 mi Calm Calm - N/A   Overcast
6:15 AM 39.2 °F - 39.4 °F 100% 29.91 in 5.0 mi Calm Calm - N/A   Overcast
6:34 AM 40.1 °F - 40.1 °F 100% 29.92 in 7.0 mi Calm Calm - N/A   Overcast
6:55 AM 40.6 °F - 40.5 °F 99% 29.93 in 7.0 mi Calm Calm - N/A   Overcast
7:15 AM 41.0 °F - 40.1 °F 97% 29.93 in 7.0 mi Calm Calm - N/A   Overcast
7:34 AM 41.0 °F - 40.1 °F 97% 29.93 in 7.0 mi Calm Calm - N/A   Overcast
7:54 AM 41.2 °F 39.2 °F 39.2 °F 93% 29.93 in 7.0 mi SE 3.5 mph - N/A   Overcast
8:15 AM 41.5 °F 39.6 °F 39.2 °F 91% 29.93 in 7.0 mi East 3.5 mph - N/A   Overcast
8:35 AM 41.9 °F - 39.7 °F 92% 29.94 in 7.0 mi Calm Calm - N/A   Overcast
8:54 AM 43.0 °F - 39.9 °F 89% 29.94 in 10.0 mi Calm Calm - N/A   Overcast
9:15 AM 44.1 °F 42.5 °F 38.5 °F 81% 29.94 in 10.0 mi East 3.5 mph - N/A   Overcast
9:35 AM 45.3 °F - 38.5 °F 77% 29.94 in 10.0 mi Calm Calm - N/A   Mostly Cloudy
9:54 AM 46.4 °F 45.2 °F 38.8 °F 75% 29.95 in 10.0 mi SE 3.5 mph - N/A   Mostly Cloudy
10:15 AM 47.1 °F - 39.2 °F 74% 29.95 in 10.0 mi Calm Calm - N/A   Overcast
10:35 AM 48.2 °F - 39.7 °F 73% 29.96 in 10.0 mi SSE 3.5 mph - N/A   Overcast
10:54 AM 49.8 °F - 40.6 °F 71% 29.95 in 10.0 mi Calm Calm - N/A   Mostly Cloudy
11:15 AM 50.9 °F - 41.2 °F 69% 29.94 in 10.0 mi SSE 3.5 mph - N/A   Clear
11:35 AM 51.4 °F - 41.9 °F 70% 29.93 in 10.0 mi Calm Calm - N/A   Clear
11:54 AM 52.0 °F - 42.4 °F 70% 29.92 in 10.0 mi SE 4.6 mph - N/A   Clear
12:15 PM 53.8 °F - 44.2 °F 70% 29.91 in 10.0 mi Calm Calm - N/A   Clear
12:35 PM 54.1 °F - 44.8 °F 71% 29.89 in 10.0 mi SE 4.6 mph - N/A   Clear
12:54 PM 54.7 °F - 45.5 °F 71% 29.88 in 10.0 mi SE 5.8 mph - N/A   Clear
1:15 PM 55.6 °F - 46.4 °F 71% 29.87 in 10.0 mi SE 6.9 mph - N/A   Clear
1:35 PM 55.8 °F - 46.4 °F 71% 29.85 in 10.0 mi SE 8.1 mph - N/A   Clear
1:54 PM 56.5 °F - 46.4 °F 69% 29.85 in 10.0 mi SE 6.9 mph - N/A   Clear
2:15 PM 56.3 °F - 46.6 °F 70% 29.85 in 10.0 mi SE 9.2 mph - N/A   Clear
2:34 PM 56.3 °F - 46.4 °F 69% 29.85 in 10.0 mi SE 4.6 mph - N/A   Clear
2:55 PM 56.3 °F - 45.9 °F 68% 29.85 in 10.0 mi SE 5.8 mph - N/A   Clear
3:15 PM 56.1 °F - 46.0 °F 69% 29.85 in 10.0 mi SE 5.8 mph - N/A   Clear
3:34 PM 55.4 °F - 45.5 °F 69% 29.85 in 10.0 mi SE 3.5 mph - N/A   Clear
3:55 PM 54.9 °F - 45.5 °F 71% 29.85 in 10.0 mi SE 5.8 mph - N/A   Clear
4:15 PM 54.5 °F - 45.5 °F 72% 29.86 in 10.0 mi SE 5.8 mph - N/A   Scattered Clouds
4:34 PM 53.8 °F - 45.5 °F 74% 29.85 in 10.0 mi ESE 4.6 mph - N/A   Mostly Cloudy
4:55 PM 53.4 °F - 45.1 °F 74% 29.85 in 10.0 mi ESE 8.1 mph - N/A   Mostly Cloudy
5:15 PM 53.1 °F - 45.0 °F 74% 29.84 in 10.0 mi ESE 5.8 mph - N/A   Clear
5:35 PM 52.9 °F - 44.8 °F 74% 29.84 in 10.0 mi ESE 5.8 mph - N/A   Scattered Clouds
5:54 PM 52.5 °F - 44.8 °F 75% 29.84 in 10.0 mi ESE 5.8 mph - N/A   Scattered Clouds
6:15 PM 52.5 °F - 44.6 °F 74% 29.84 in 10.0 mi ESE 6.9 mph - N/A   Scattered Clouds
6:34 PM 52.7 °F - 44.8 °F 74% 29.83 in 10.0 mi ESE 4.6 mph - N/A   Mostly Cloudy
6:55 PM 52.7 °F - 44.6 °F 74% 29.83 in 10.0 mi SE 5.8 mph - N/A   Overcast
7:15 PM 52.9 °F - 44.6 °F 73% 29.83 in 10.0 mi ESE 4.6 mph - N/A   Overcast
7:35 PM 53.1 °F - 44.6 °F 73% 29.83 in 10.0 mi SE 5.8 mph - N/A   Overcast
7:54 PM 52.9 °F - 44.6 °F 73% 29.83 in 10.0 mi SE 5.8 mph - N/A   Overcast
8:15 PM 52.9 °F - 44.4 °F 73% 29.82 in 10.0 mi ESE 5.8 mph - N/A   Overcast
8:35 PM 52.7 °F - 44.2 °F 73% 29.82 in 10.0 mi SE 8.1 mph - N/A   Mostly Cloudy
8:54 PM 52.5 °F - 44.4 °F 74% 29.83 in 10.0 mi SE 4.6 mph - N/A   Mostly Cloudy
9:15 PM 53.2 °F - 44.6 °F 72% 29.82 in 10.0 mi SE 6.9 mph - N/A   Mostly Cloudy
9:34 PM 53.6 °F - 44.6 °F 72% 29.81 in 10.0 mi SE 4.6 mph - N/A   Overcast
9:55 PM 53.8 °F - 44.6 °F 71% 29.81 in 10.0 mi SE 5.8 mph - N/A   Mostly Cloudy
10:15 PM 54.1 °F - 44.8 °F 71% 29.81 in 10.0 mi SE 5.8 mph - N/A   Overcast
10:34 PM 53.8 °F - 44.8 °F 72% 29.81 in 10.0 mi SE 5.8 mph - N/A   Overcast
10:55 PM 54.0 °F - 44.8 °F 71% 29.81 in 10.0 mi SE 6.9 mph - N/A   Overcast
11:15 PM 54.1 °F - 45.0 °F 71% 29.81 in 10.0 mi SSE 3.5 mph - N/A   Overcast
11:34 PM 54.5 °F - 45.1 °F 71% 29.82 in 10.0 mi SSE 3.5 mph - N/A   Overcast
11:55 PM 55.4 °F - 45.7 °F 70% 29.80 in 10.0 mi SSE 5.8 mph - N/A   Overcast